Weather in Sofifi

Indonesia     0°43′56″N   127°33′33″E
temp.,
°C
wind,
m/s
gust,
m/s
humid.,
%
clouds,
%
prec.,
mm/h
press.,
hPa
HPBL,
m
14 may, fri
fri1400:00+28nne117731 0.2 1008184
03:00+27ne118013 0.4 1007152
06:00+27ene217918 0.0 1007195
09:00+28ene117411 0.1 1009320
12:00+29sw226980 0.3 1007499
15:00+29sw227398 2.0 1005322
18:00+28w1178100 5.3 100639
21:00+28ne117671 9.6 1008155
15 may, sat
sat1500:00+28ene2279100 0.0 1008239
03:00+27ne2381100 0.5 1007231
06:00+27ene2381100 1.1 1007225
09:00+28ene127833 2.0 1009335
12:00+28wsw2176100 1.0 1008392
15:00+29w2171100 2.9 1005755
18:00+28nnw227426 2.8 1006482
21:00+28nne117899 4.9 1008178
16 may, sun
sun1600:00+27nne1179100 0.6 1008139
03:00+27nne1179100 0.8 1006190
06:00+27ne118065 0.1 1007214
09:00+28ene007619 0.9 1009311
12:00+29sw337173 0.6 1007613
15:00+29sw33717 1.6 1006609
18:00+29sw22735 0.4 1006576
21:00+28ssw22745 0.9 1008414
17 may, mon
mon1700:00+28s117752 0.8 1008126
03:00+27sse1177100 1.4 100785
06:00+28ese1176100 0.4 1007258
09:00+28s0172100 0.5 1008471
12:00+29wsw32696 0.1 1007590
15:00+30sw326852 0.8 1005725
18:00+28sw2276100 2.8 1006183
21:00+28s1175100 4.9 1008213
18 may, tue
tue1800:00+28ene227629 0.2 1008176
03:00+27ene228053 0.2 1007207
06:00+27ene22805 0.1 1007178
09:00+28e11735 0.2 1009338
12:00+29wsw216832 0.0 1007444
15:00+30wsw326599 0.8 1005655
18:00+29nw237396 2.0 1006276
21:00+28nne2278100 5.8 1008133